| time (UTC) | temp F | wind direction | speed MPH | gust MPH | rain 1hr in | rain 24hr in | rain mn in | humidity % | barometer mb |
| 20260505040036 | 49 | 215 | 2.0 | 4.0 | 0.00 | 0.01 | 0.00 | 72 | 1003.9 |
| 20260505035036 | 49 | 217 | 2.0 | 3.0 | 0.00 | 0.01 | 0.01 | 73 | 1003.9 |
| 20260505034534 | 49 | 217 | 2.0 | 4.0 | 0.00 | 0.01 | 0.01 | 73 | 1003.9 |
| 20260505034032 | 49 | 217 | 1.0 | 4.0 | 0.00 | 0.01 | 0.01 | 71 | 1003.9 |
| 20260505033533 | 50 | 219 | 1.0 | 3.0 | 0.00 | 0.01 | 0.01 | 70 | 1003.9 |
| 20260505033031 | 50 | 219 | 1.0 | 3.0 | 0.00 | 0.01 | 0.01 | 69 | 1003.9 |
| 20260505032528 | 51 | 219 | 0.0 | 3.0 | 0.00 | 0.01 | 0.01 | 69 | 1003.9 |
| 20260505032027 | 51 | 219 | 1.0 | 3.0 | 0.00 | 0.01 | 0.01 | 68 | 1004.0 |
| 20260505031528 | 51 | 219 | 2.0 | 3.0 | 0.00 | 0.01 | 0.01 | 68 | 1004.0 |
| 20260505031245 | 51 | 220 | 2.0 | 3.0 | 0.00 | 0.01 | 0.01 | 69 | 1004.0 |
| 20260505030528 | 50 | 219 | 2.0 | 4.0 | 0.00 | 0.01 | 0.01 | 70 | 1004.0 |
| 20260505030025 | 50 | 220 | 2.0 | 4.0 | 0.00 | 0.01 | 0.01 | 70 | 1004.0 |
| 20260505025753 | 51 | 217 | 1.0 | 4.0 | 0.00 | 0.01 | 0.01 | 68 | 1004.1 |
| 20260505024523 | 50 | 236 | 1.0 | 4.0 | 0.00 | 0.01 | 0.01 | 70 | 1004.1 |
| 20260505024243 | 51 | 237 | 1.0 | 4.0 | 0.00 | 0.01 | 0.01 | 69 | 1004.1 |
| 20260505023524 | 51 | 236 | 1.0 | 3.0 | 0.00 | 0.01 | 0.01 | 69 | 1004.1 |
| 20260505023024 | 51 | 236 | 2.0 | 4.0 | 0.00 | 0.01 | 0.01 | 68 | 1004.1 |
| 20260505022524 | 51 | 237 | 2.0 | 5.0 | 0.00 | 0.01 | 0.01 | 68 | 1004.2 |
| 20260505022024 | 51 | 238 | 3.0 | 7.0 | 0.00 | 0.01 | 0.01 | 68 | 1004.2 |
| 20260505021521 | 51 | 242 | 2.0 | 7.0 | 0.00 | 0.01 | 0.01 | 69 | 1004.2 |
| 20260505021021 | 51 | 245 | 2.0 | 4.0 | 0.00 | 0.01 | 0.01 | 69 | 1004.4 |
| 20260505020522 | 51 | 246 | 2.0 | 4.0 | 0.00 | 0.01 | 0.01 | 68 | 1004.5 |
| 20260505020022 | 51 | 248 | 2.0 | 4.0 | 0.00 | 0.01 | 0.01 | 68 | 1004.6 |
| 20260505015522 | 51 | 258 | 2.0 | 4.0 | 0.00 | 0.01 | 0.01 | 68 | 1004.6 |
| 20260505015022 | 51 | 239 | 2.0 | 6.0 | 0.00 | 0.01 | 0.01 | 68 | 1004.6 |
| 20260505014741 | 51 | 271 | 2.0 | 6.0 | 0.00 | 0.01 | 0.01 | 67 | 1004.6 |
| 20260505014018 | 51 | 244 | 2.0 | 5.0 | 0.00 | 0.01 | 0.01 | 66 | 1004.7 |
| 20260505013518 | 52 | 244 | 2.0 | 4.0 | 0.00 | 0.01 | 0.01 | 65 | 1004.5 |
| 20260505013018 | 52 | 218 | 1.0 | 3.0 | 0.00 | 0.01 | 0.01 | 64 | 1004.4 |
| 20260505012518 | 53 | 218 | 1.0 | 3.0 | 0.00 | 0.01 | 0.01 | 62 | 1004.4 |
| 20260505012236 | 53 | 218 | 1.0 | 3.0 | 0.00 | 0.01 | 0.01 | 62 | 1004.2 |
| 20260505011517 | 54 | 218 | 1.0 | 2.0 | 0.00 | 0.01 | 0.01 | 62 | 1004.2 |
| 20260505011017 | 54 | 218 | 1.0 | 2.0 | 0.00 | 0.01 | 0.01 | 60 | 1004.2 |
| 20260505010518 | 54 | 218 | 2.0 | 3.0 | 0.00 | 0.01 | 0.01 | 59 | 1004.2 |
| 20260505010018 | 55 | 218 | 2.0 | 5.0 | 0.00 | 0.01 | 0.01 | 58 | 1004.1 |
| 20260505005747 | 55 | 218 | 3.0 | 5.0 | 0.00 | 0.01 | 0.01 | 57 | 1004.2 |
| 20260505005018 | 56 | 209 | 3.0 | 6.0 | 0.00 | 0.01 | 0.01 | 58 | 1004.2 |
| 20260505004517 | 56 | 223 | 3.0 | 6.0 | 0.00 | 0.01 | 0.01 | 57 | 1004.1 |
| 20260505004017 | 56 | 217 | 3.0 | 6.0 | 0.00 | 0.01 | 0.01 | 57 | 1004.0 |
| 20260505003518 | 56 | 217 | 3.0 | 6.0 | 0.00 | 0.01 | 0.01 | 55 | 1003.9 |
| 20260505003017 | 56 | 223 | 3.0 | 6.0 | 0.00 | 0.01 | 0.01 | 56 | 1003.9 |
| 20260505002517 | 57 | 221 | 3.0 | 6.0 | 0.00 | 0.01 | 0.01 | 54 | 1003.9 |
| 20260505002017 | 57 | 223 | 4.0 | 6.0 | 0.00 | 0.01 | 0.01 | 53 | 1003.8 |
| 20260505001521 | 58 | 223 | 4.0 | 7.0 | 0.00 | 0.01 | 0.01 | 52 | 1003.8 |
| 20260505001017 | 58 | 225 | 3.0 | 7.0 | 0.00 | 0.01 | 0.01 | 52 | 1003.8 |
| 20260505000518 | 58 | 221 | 4.0 | 9.0 | 0.00 | 0.01 | 0.01 | 51 | 1003.7 |
| 20260505000017 | 59 | 230 | 4.0 | 9.0 | 0.00 | 0.01 | 0.01 | 50 | 1003.7 |
| 20260504235518 | 59 | 221 | 4.0 | 8.0 | 0.00 | 0.01 | 0.01 | 50 | 1003.7 |
| 20260504235017 | 60 | 232 | 4.0 | 8.0 | 0.00 | 0.01 | 0.01 | 49 | 1003.7 |
| 20260504234516 | 60 | 237 | 4.0 | 8.0 | 0.00 | 0.01 | 0.01 | 48 | 1003.6 |
| 20260504234013 | 60 | 243 | 5.0 | 9.0 | 0.00 | 0.01 | 0.01 | 48 | 1003.7 |
| 20260504233512 | 61 | 267 | 4.0 | 9.0 | 0.00 | 0.01 | 0.01 | 46 | 1003.6 |
| 20260504233011 | 61 | 239 | 5.0 | 10.0 | 0.00 | 0.01 | 0.01 | 46 | 1003.6 |
| 20260504232509 | 62 | 224 | 6.0 | 13.0 | 0.00 | 0.01 | 0.01 | 45 | 1003.5 |
| 20260504232010 | 62 | 232 | 7.0 | 14.0 | 0.00 | 0.01 | 0.01 | 44 | 1003.4 |
| 20260504231509 | 62 | 229 | 7.0 | 14.0 | 0.00 | 0.01 | 0.01 | 44 | 1003.3 |
| 20260504231010 | 62 | 209 | 8.0 | 16.0 | 0.00 | 0.01 | 0.01 | 43 | 1003.3 |
| 20260504230509 | 62 | 238 | 10.0 | 20.0 | 0.00 | 0.01 | 0.01 | 43 | 1003.3 |
| 20260504230010 | 62 | 239 | 10.0 | 20.0 | 0.00 | 0.01 | 0.01 | 42 | 1003.3 |
| 20260504225510 | 63 | 223 | 9.0 | 19.0 | 0.00 | 0.01 | 0.01 | 41 | 1003.3 |
| 20260504225009 | 63 | 240 | 10.0 | 20.0 | 0.00 | 0.01 | 0.01 | 43 | 1003.1 |
| 20260504224510 | 64 | 244 | 11.0 | 20.0 | 0.00 | 0.01 | 0.01 | 39 | 1003.0 |
| 20260504224010 | 64 | 209 | 10.0 | 18.0 | 0.00 | 0.01 | 0.01 | 39 | 1003.0 |
| 20260504223509 | 65 | 245 | 8.0 | 17.0 | 0.00 | 0.01 | 0.01 | 39 | 1002.9 |
| 20260504223009 | 65 | 175 | 7.0 | 14.0 | 0.00 | 0.01 | 0.01 | 39 | 1003.0 |
| 20260504222508 | 65 | 235 | 7.0 | 17.0 | 0.00 | 0.01 | 0.01 | 39 | 1002.9 |
| 20260504222009 | 65 | 238 | 8.0 | 21.0 | 0.00 | 0.01 | 0.01 | 38 | 1002.9 |
| 20260504221506 | 65 | 268 | 9.0 | 21.0 | 0.00 | 0.01 | 0.01 | 38 | 1002.9 |
| 20260504221004 | 64 | 211 | 8.0 | 17.0 | 0.00 | 0.01 | 0.01 | 40 | 1002.8 |
| 20260504220504 | 64 | 222 | 9.0 | 23.0 | 0.00 | 0.01 | 0.01 | 41 | 1002.9 |
| 20260504215958 | 65 | 258 | 10.0 | 23.0 | 0.00 | 0.01 | 0.01 | 38 | 1002.9 |
| 20260504215448 | 65 | 236 | 8.0 | 18.0 | 0.00 | 0.01 | 0.01 | 39 | 1002.9 |
| 20260504214942 | 65 | 207 | 8.0 | 18.0 | 0.00 | 0.01 | 0.01 | 40 | 1002.9 |
| 20260504214435 | 65 | 204 | 11.0 | 18.0 | 0.00 | 0.01 | 0.01 | 40 | 1003.0 |
| 20260504213926 | 65 | 240 | 11.0 | 17.0 | 0.00 | 0.01 | 0.01 | 40 | 1002.9 |
| 20260504213419 | 65 | 268 | 10.0 | 20.0 | 0.00 | 0.01 | 0.01 | 42 | 1002.8 |
| 20260504212911 | 64 | 216 | 8.0 | 20.0 | 0.00 | 0.01 | 0.01 | 41 | 1002.9 |
| 20260504212402 | 64 | 258 | 8.0 | 19.0 | 0.00 | 0.01 | 0.01 | 44 | 1003.0 |
| 20260504211856 | 64 | 236 | 10.0 | 24.0 | 0.00 | 0.01 | 0.01 | 44 | 1002.9 |
| 20260504211350 | 64 | 187 | 9.0 | 17.0 | 0.00 | 0.01 | 0.01 | 45 | 1002.8 |
| 20260504210840 | 65 | 223 | 8.0 | 19.0 | 0.00 | 0.01 | 0.01 | 42 | 1002.9 |
| 20260504210335 | 65 | 217 | 9.0 | 19.0 | 0.00 | 0.01 | 0.01 | 44 | 1002.8 |
| 20260504205828 | 63 | 198 | 10.0 | 18.0 | 0.00 | 0.01 | 0.01 | 45 | 1002.9 |
| 20260504205318 | 63 | 239 | 11.0 | 22.0 | 0.00 | 0.01 | 0.01 | 45 | 1002.9 |
| 20260504204812 | 64 | 221 | 9.0 | 22.0 | 0.00 | 0.01 | 0.01 | 44 | 1002.8 |
| 20260504203809 | 64 | 219 | 9.0 | 22.0 | 0.00 | 0.01 | 0.01 | 44 | 1002.8 |
| 20260504203309 | 64 | 288 | 9.0 | 22.0 | 0.00 | 0.01 | 0.01 | 43 | 1002.9 |
| 20260504202809 | 64 | 207 | 9.0 | 20.0 | 0.00 | 0.01 | 0.01 | 46 | 1002.9 |
| 20260504202309 | 64 | 254 | 11.0 | 20.0 | 0.00 | 0.01 | 0.01 | 42 | 1002.9 |
| 20260504202032 | 64 | 229 | 11.0 | 21.0 | 0.00 | 0.01 | 0.01 | 42 | 1002.9 |
| 20260504201309 | 64 | 221 | 10.0 | 21.0 | 0.00 | 0.01 | 0.01 | 44 | 1002.9 |
| 20260504200810 | 65 | 217 | 10.0 | 21.0 | 0.00 | 0.01 | 0.01 | 43 | 1002.9 |
| 20260504200310 | 65 | 248 | 11.0 | 21.0 | 0.00 | 0.01 | 0.01 | 43 | 1003.0 |
| 20260504195809 | 63 | 223 | 12.0 | 20.0 | 0.00 | 0.01 | 0.01 | 46 | 1003.0 |
| 20260504195309 | 64 | 248 | 11.0 | 20.0 | 0.00 | 0.01 | 0.01 | 44 | 1003.2 |
| 20260504194809 | 64 | 239 | 12.0 | 23.0 | 0.00 | 0.01 | 0.01 | 45 | 1003.2 |
| 20260504194531 | 65 | 244 | 13.0 | 23.0 | 0.00 | 0.01 | 0.01 | 43 | 1003.1 |
| 20260504193809 | 66 | 265 | 12.0 | 21.0 | 0.00 | 0.01 | 0.01 | 45 | 1003.2 |
| 20260504193303 | 65 | 211 | 12.0 | 26.0 | 0.00 | 0.01 | 0.01 | 44 | 1003.2 |
| 20260504192759 | 63 | 222 | 10.0 | 26.0 | 0.00 | 0.01 | 0.01 | 45 | 1003.3 |
| 20260504192259 | 63 | 217 | 9.0 | 15.0 | 0.00 | 0.01 | 0.01 | 45 | 1003.4 |
| 20260504191803 | 65 | 292 | 11.0 | 20.0 | 0.00 | 0.01 | 0.01 | 43 | 1003.4 |
| 20260504191259 | 65 | 263 | 11.0 | 20.0 | 0.00 | 0.01 | 0.01 | 43 | 1003.4 |
| 20260504190759 | 65 | 221 | 12.0 | 25.0 | 0.00 | 0.01 | 0.01 | 44 | 1003.3 |
| 20260504190259 | 66 | 250 | 12.0 | 25.0 | 0.00 | 0.01 | 0.01 | 42 | 1003.4 |
| 20260504185759 | 66 | 240 | 11.0 | 22.0 | 0.00 | 0.01 | 0.01 | 44 | 1003.4 |
| 20260504185259 | 65 | 240 | 11.0 | 22.0 | 0.00 | 0.01 | 0.01 | 44 | 1003.5 |
| 20260504184759 | 64 | 261 | 10.0 | 21.0 | 0.00 | 0.01 | 0.01 | 44 | 1003.5 |
| 20260504184259 | 63 | 249 | 10.0 | 26.0 | 0.00 | 0.01 | 0.01 | 45 | 1003.4 |
| 20260504183802 | 63 | 267 | 11.0 | 26.0 | 0.00 | 0.01 | 0.01 | 44 | 1003.5 |
| 20260504183259 | 65 | 319 | 13.0 | 26.0 | 0.00 | 0.01 | 0.01 | 42 | 1003.4 |
| 20260504182758 | 66 | 225 | 12.0 | 26.0 | 0.00 | 0.01 | 0.01 | 43 | 1003.5 |
| 20260504182258 | 65 | 259 | 11.0 | 22.0 | 0.00 | 0.01 | 0.01 | 45 | 1003.5 |
| 20260504181753 | 63 | 252 | 12.0 | 22.0 | 0.00 | 0.01 | 0.01 | 46 | 1003.6 |
| 20260504181246 | 61 | 236 | 11.0 | 24.0 | 0.00 | 0.01 | 0.01 | 49 | 1003.6 |
| 20260504180741 | 61 | 235 | 10.0 | 24.0 | 0.00 | 0.01 | 0.01 | 48 | 1003.6 |
| 20260504180241 | 61 | 213 | 10.0 | 20.0 | 0.00 | 0.01 | 0.01 | 50 | 1003.5 |
| 20260504175741 | 61 | 234 | 10.0 | 20.0 | 0.00 | 0.01 | 0.01 | 49 | 1003.6 |
| 20260504175241 | 61 | 237 | 9.0 | 20.0 | 0.00 | 0.01 | 0.01 | 49 | 1003.6 |
| 20260504175004 | 62 | 261 | 10.0 | 21.0 | 0.00 | 0.01 | 0.01 | 48 | 1003.7 |
| 20260504174244 | 62 | 267 | 13.0 | 24.0 | 0.00 | 0.01 | 0.01 | 47 | 1003.6 |
| 20260504173742 | 62 | 200 | 12.0 | 24.0 | 0.00 | 0.01 | 0.01 | 48 | 1003.7 |
| 20260504173459 | 62 | 250 | 11.0 | 20.0 | 0.00 | 0.01 | 0.01 | 48 | 1003.6 |
| 20260504172740 | 61 | 225 | 10.0 | 17.0 | 0.00 | 0.01 | 0.01 | 48 | 1003.7 |
| 20260504172241 | 62 | 215 | 10.0 | 17.0 | 0.00 | 0.01 | 0.01 | 49 | 1003.7 |
| 20260504172009 | 62 | 236 | 9.0 | 17.0 | 0.00 | 0.01 | 0.01 | 49 | 1003.7 |
| 20260504171241 | 61 | 234 | 9.0 | 19.0 | 0.00 | 0.01 | 0.01 | 50 | 1003.6 |
| 20260504170740 | 60 | 227 | 8.0 | 19.0 | 0.00 | 0.01 | 0.01 | 48 | 1003.7 |
| 20260504170246 | 62 | 197 | 8.0 | 17.0 | 0.00 | 0.01 | 0.01 | 48 | 1003.7 |
| 20260504160229 | 58 | 246 | 9.0 | 18.0 | 0.00 | 0.01 | 0.01 | 53 | 1004.5 |
| 20260504150728 | 50 | 209 | 7.0 | 14.0 | 0.00 | 0.01 | 0.01 | 63 | 1004.6 |
| 20260504150452 | 50 | 229 | 8.0 | 17.0 | 0.00 | 0.01 | 0.01 | 63 | 1004.8 |
| 20260504141225 | 51 | 225 | 9.0 | 19.0 | 0.00 | 0.01 | 0.01 | 63 | 1004.7 |
| 20260504140724 | 51 | 205 | 10.0 | 18.0 | 0.00 | 0.01 | 0.01 | 62 | 1004.6 |
| 20260504140220 | 51 | 275 | 12.0 | 24.0 | 0.00 | 0.01 | 0.01 | 61 | 1004.6 |
| 20260504130721 | 50 | 253 | 8.0 | 16.0 | 0.00 | 0.01 | 0.01 | 65 | 1004.6 |
| 20260504130215 | 50 | 219 | 7.0 | 14.0 | 0.00 | 0.01 | 0.01 | 65 | 1004.6 |
| 20260504120210 | 48 | 214 | 8.0 | 14.0 | 0.00 | 0.01 | 0.01 | 69 | 1004.7 |
| 20260504110658 | 45 | 225 | 7.0 | 16.0 | 0.00 | 0.01 | 0.01 | 78 | 1004.6 |
| 20260504110159 | 44 | 235 | 6.0 | 13.0 | 0.00 | 0.01 | 0.01 | 80 | 1004.6 |
| 20260504100559 | 41 | 229 | 0.0 | 3.0 | 0.00 | 0.01 | 0.01 | 93 | 1004.9 |
| 20260504081823 | 42 | 277 | 4.0 | 8.0 | 0.01 | 0.01 | 0.01 | 93 | 1005.3 |
| 20260504081318 | 42 | 250 | 3.0 | 7.0 | 0.01 | 0.01 | 0.01 | 93 | 1005.3 |
| 20260504080811 | 42 | 259 | 4.0 | 7.0 | 0.01 | 0.01 | 0.01 | 93 | 1005.2 |
| 20260504080301 | 42 | 249 | 4.0 | 7.0 | 0.01 | 0.01 | 0.01 | 93 | 1005.2 |
| 20260504070142 | 42 | 231 | 5.0 | 14.0 | 0.00 | 0.00 | 0.00 | 92 | 1005.2 |
| 20260504060140 | 41 | 246 | 7.0 | 18.0 | 0.00 | 0.00 | 0.00 | 90 | 1005.5 |
| 20260504050636 | 39 | 268 | 3.0 | 6.0 | 0.00 | 0.00 | 0.00 | 91 | 1005.5 |
| 20260504050136 | 39 | 240 | 3.0 | 6.0 | 0.00 | 0.00 | 0.00 | 91 | 1005.6 |
| 20260504045636 | 39 | 240 | 2.0 | 6.0 | 0.00 | 0.00 | 0.00 | 91 | 1005.6 |
| 20260504045136 | 39 | 234 | 2.0 | 4.0 | 0.00 | 0.00 | 0.00 | 91 | 1005.7 |
| 20260504044636 | 39 | 248 | 2.0 | 7.0 | 0.00 | 0.00 | 0.00 | 91 | 1005.7 |
| 20260504044357 | 39 | 248 | 2.0 | 7.0 | 0.00 | 0.00 | 0.00 | 90 | 1005.8 |
| 20260504043859 | 39 | 225 | 2.0 | 4.0 | 0.00 | 0.00 | 0.00 | 90 | 1005.8 |
| 20260504043135 | 39 | 221 | 2.0 | 5.0 | 0.00 | 0.00 | 0.00 | 89 | 1005.9 |
| 20260504042633 | 40 | 221 | 2.0 | 7.0 | 0.00 | 0.00 | 0.00 | 88 | 1005.9 |
| 20260504042354 | 40 | 246 | 2.0 | 7.0 | 0.00 | 0.00 | 0.00 | 88 | 1005.9 |
| 20260504041634 | 40 | 249 | 3.0 | 8.0 | 0.00 | 0.00 | 0.00 | 87 | 1006.0 |
| 20260504041133 | 40 | 238 | 4.0 | 8.0 | 0.00 | 0.00 | 0.00 | 86 | 1006.1 |